Location: East Irvine
(33.6759°N, 117.7598°W)
Time: 23:02:47
(UTC+00:00)

NOAA 6 - Pass Details

Date: 15 November 2025
Orbit: 766 x 782 km, 98.6° (Epoch: 13 December)

Event Time Altitude Azimuth Distance (km) Brightness Sun altitude
Rises 02:13:59 0° 150° (SSE) 3,252 7.1 -17.9°
Reaches altitude 10° 02:16:22 10° 144° (SE) 2,327 6.2 -18.4°
Maximum altitude 02:21:15 46° 72° (ENE) 1,044 4.2 -19.4°
Drops below altitude 10° 02:26:08 10° 1° (N) 2,333 6.4 -20.4°
Sets 02:28:31 0° 355° (N) 3,262 7.2 -20.9°
